Location: Azul
(36.7830°S, 59.8500°W)
Time: 08:21:52
(UTC-03:00)

DOVE 4 - Pass Details

Date: 30 October 2021
Orbit: 588 x 799 km, 97.8° (Epoch: 07 December)

Event Time Altitude Azimuth Distance (km) Brightness Sun altitude
Exits shadow 00:21:29 24° 179° (S) 1,632 ? -39.1°
Drops below altitude 10° 00:23:34 10° 185° (S) 2,405 ? -39.2°
Sets 00:25:57 0° 188° (S) 3,336 ? -39.2°
